Simultaneous Nadir Overpasses (SNOs) Predictions

Prediction of SNOs between AQUA and GOES-15 Satellite Orbit:

Table of predicted SNOs for the next 14.0 days since TLE Epoch: 12/21/2024
Index Date Time (AQUA) AQUA Lat,Lon GOES-15 Lat,Lon Distance(km) Time Diff (sec)
1 12/22/2024 10:17:33 0.15, 62.01 0.05, 61.45 62.91 80
2 12/22/2024 22:37:06 0.79, 57.27 -0.06, 61.33 461.64 80
3 12/24/2024 22:18:16 -0.16, 61.89 -0.05, 61.33 62.94 80
4 12/25/2024 10:37:55 -0.89, 57.14 0.06, 61.46 491.84 80
5 12/27/2024 10:19:04 0.13, 61.75 0.05, 61.46 33.05 80
6 12/27/2024 22:38:36 0.88, 57.02 -0.05, 61.33 490.70 80
7 12/29/2024 22:19:43 -0.10, 61.65 -0.04, 61.35 33.40 80
8 01/01/2025 10:20:28 0.02, 61.53 0.03, 61.51 2.71 66
9 01/03/2025 22:21:05 -0.06, 61.43 -0.04, 61.40 3.89 80
